RH
16 16 16 16 16 15 16 15 15 16 15 15 16 16 16 16 16 17 17 17 17 18 18 17 18 18 18 18 18 18 18 21 22 23 25 24 24 23 22 23 24 24 23 23 22 22 22 21 20 19 19 19 24 31 35 30 21 18 16 16 15 15 16 16 16 15 15 14 14 13 13 12 13 13 14 14 14 14 14 15 15 16 18 19 30 42 49 48 44 41 38 38 38 36 33 30 26
16 16 16 17 17 17 17 16 17 17 17 17 17 17 18 18 19 19 19 19 19 20 20 21 23 25 26 26 26 27 31 36 40 42 43 42 40 39 38 37 38 37 36 35 34 34 34 32 31 28 27 28 32 37 39 35 27 24 23 22 24 25 27 29 31 31 30 28 25 23 21 20 20 21 22 24 25 25 24 24 24 25 26 30 38 44 45 43 41 39 36 36 37 37 38 37 33
16 17 17 17 17 17 17 17 18 18 18 18 17 19 20 21 24 24 24 25 25 27 30 35 38 43 44 45 47 51 55 57 59 59 60 56 51 51 51 48 46 46 45 46 48 47 47 46 44 40 36 35 37 39 37 35 32 32 36 39 43 46 49 53 56 58 56 53 49 44 40 36 34 33 33 33 34 34 34 34 33 32 33 35 36 35 34 32 32 32 31 30 30 31 32 32 31
18 18 17 18 18 18 19 19 20 22 21 21 23 27 33 38 42 42 40 39 41 50 57 59 64 70 70 71 73 72 70 69 68 66 65 61 63 63 55 51 48 46 46 53 63 58 55 53 50 48 46 44 42 45 45 45 47 47 51 55 60 64 67 70 71 72 72 68 63 58 53 49 46 42 40 38 36 36 35 35 35 36 37 38 39 39 38 37 36 36 36 37 36 35 35 35 34
19 20 21 21 20 21 21 24 31 33 29 32 40 49 62 65 66 67 63 64 68 80 88 89 95 94 88 85 82 78 72 69 66 65 63 61 70 71 55 50 51 57 63 71 82 74 65 62 56 53 51 53 53 54 57 62 70 75 78 78 78 79 78 79 79 78 76 73 70 67 64 62 60 58 56 53 51 49 48 48 48 50 51 52 52 50 49 49 48 48 48 47 46 45 45 44 44
25 25 25 25 29 32 35 44 51 50 47 58 68 75 86 81 80 87 88 90 88 97 104 101 101 96 86 80 76 73 68 61 59 60 60 54 57 59 55 64 75 83 86 86 91 80 74 81 77 74 75 77 77 74 76 79 85 93 97 98 98 98 96 94 93 92 90 87 85 82 80 78 76 74 71 70 68 66 65 65 64 64 64 64 62 60 58 57 56 55 53 52 51 50 49 49 48
32 35 43 53 64 68 71 72 69 75 83 92 91 89 95 85 84 94 93 90 85 96 103 94 88 85 78 71 66 62 57 53 54 53 51 47 45 50 56 76 94 92 93 97 96 83 78 90 91 91 98 101 100 96 95 96 96 101 103 104 106 106 105 102 101 101 99 96 93 89 87 84 82 81 79 79 78 77 77 76 76 75 73 72 70 67 64 62 60 58 57 55 54 52 50 48 48
46 61 80 92 93 92 94 88 85 99 108 104 96 94 93 81 85 92 85 79 84 93 91 86 84 81 75 65 59 54 54 53 53 49 42 40 40 46 49 64 82 80 91 98 84 73 71 76 78 80 87 93 99 100 100 99 98 101 102 102 103 103 102 101 98 94 91 87 84 81 79 78 77 77 78 79 78 78 77 77 77 76 74 72 70 67 64 61 59 57 56 54 53 51 50 48 47
75 90 100 102 97 95 97 93 97 108 108 99 94 97 89 83 94 93 84 83 89 89 77 78 82 78 70 60 58 60 63 61 57 54 46 39 41 47 44 46 58 61 73 75 58 54 55 56 60 63 68 74 79 80 84 89 92 96 98 100 101 100 101 98 93 87 86 85 84 83 83 83 83 83 83 82 80 78 76 74 72 70 68 65 62 60 57 54 52 51 49 48 47 45 44 43 41
98 100 98 100 99 100 99 96 103 106 101 93 94 97 88 93 102 91 88 89 86 79 65 68 75 70 64 58 60 64 68 69 64 59 50 42 46 55 55 54 62 65 66 62 52 49 47 46 49 53 60 68 76 82 87 93 97 100 101 102 101 100 100 100 98 95 96 96 96 95 94 93 91 89 86 83 79 74 70 66 64 61 58 55 53 51 49 47 46 44 43 41 40 38 37 36 34
101 99 97 100 100 101 99 99 106 104 98 94 97 96 85 92 101 95 98 97 88 81 76 78 76 69 72 70 63 66 73 73 64 55 49 44 47 57 66 73 79 77 69 65 61 53 48 47 47 49 53 60 71 85 94 97 99 99 99 99 98 97 95 96 95 91 87 84 81 80 79 77 74 72 69 66 63 59 57 55 53 51 49 47 46 44 43 41 40 38 37 35 34 33 32 31 30
97 93 95 102 102 100 100 104 108 102 98 96 96 94 84 82 88 95 102 102 87 77 83 87 76 69 77 73 62 67 73 71 62 52 49 49 50 55 62 70 74 72 69 71 67 56 50 48 49 51 52 54 58 65 72 75 77 77 76 75 74 73 71 70 67 64 61 59 59 60 60 60 60 58 57 55 54 53 51 49 47 45 44 42 41 39 38 36 34 33 32 31 30 29 28 27 26
94 92 98 104 101 100 101 105 105 97 95 94 91 86 82 79 79 84 84 82 73 68 79 82 70 64 65 60 57 62 62 59 52 45 47 57 64 62 61 62 63 64 65 65 60 54 51 48 50 54 54 55 58 59 58 57 56 54 53 52 52 52 52 54 55 56 57 59 59 59 59 59 58 56 54 52 49 47 45 44 42 40 38 37 35 34 33 32 30 30 29 28 27 26 25 24 24
98 98 101 103 102 103 98 98 95 89 94 97 86 72 77 87 87 86 74 61 65 73 75 74 69 60 53 48 48 50 51 50 45 43 45 54 60 58 54 52 50 52 54 55 54 53 50 48 52 58 59 62 64 63 59 55 52 53 56 57 58 59 61 64 65 65 64 62 60 58 56 54 52 50 47 45 43 42 40 38 37 35 34 33 32 31 31 30 29 28 27 26 25 25 24 24 24
104 99 99 104 104 98 86 85 87 92 102 101 88 70 71 84 87 93 89 73 74 80 65 59 61 55 49 44 42 44 47 46 44 45 44 46 48 48 49 48 48 51 53 56 56 53 52 52 57 62 66 66 65 61 60 61 64 69 71 71 71 72 72 70 67 64 61 58 55 53 51 49 46 44 42 40 39 37 36 35 35 35 35 34 33 32 31 30 28 27 26 26 25 25 24 24 23
102 100 103 101 92 82 70 72 83 100 105 97 95 85 73 70 69 74 79 75 80 93 86 76 74 66 56 49 48 49 51 54 57 60 59 59 60 60 60 60 60 59 61 62 59 57 56 57 59 61 62 62 65 70 73 77 81 83 82 79 76 73 69 64 60 57 56 54 52 50 47 45 42 40 38 36 36 36 37 37 38 38 36 34 33 31 30 29 28 27 26 25 24 24 23 23 22
103 104 101 90 80 72 63 64 80 103 104 94 98 99 91 80 73 70 69 65 65 80 91 95 97 90 78 69 66 66 70 79 83 83 79 74 70 70 68 67 67 67 69 69 67 68 67 65 65 66 67 68 74 81 85 88 89 87 84 78 70 64 60 57 55 53 51 48 46 43 41 39 38 37 36 36 38 40 41 41 39 37 34 33 32 31 30 29 28 27 25 24 23 23 23 23 23
105 95 84 76 73 72 70 69 77 95 103 100 97 96 101 98 93 91 87 80 71 69 77 91 101 102 98 93 90 90 94 99 98 91 82 73 65 63 61 59 61 66 70 70 70 73 78 82 83 83 84 83 84 86 89 91 90 84 75 66 59 55 53 51 49 46 44 42 40 38 37 37 36 36 39 41 43 44 43 42 39 36 33 32 31 30 29 28 27 25 24 23 23 24 24 24 24
97 83 73 68 67 71 77 78 79 86 97 105 99 91 94 97 98 99 100 99 95 89 87 93 100 102 104 102 101 102 103 102 95 84 76 69 61 58 55 54 57 61 67 75 76 75 81 90 94 93 91 90 89 87 85 82 75 68 60 55 51 49 47 45 42 41 40 39 38 38 37 37 38 41 44 46 46 46 46 44 39 35 33 31 31 31 29 27 25 24 24 25 25 25 25 25 25
98 90 84 79 74 72 73 75 77 77 85 94 95 90 86 88 92 93 95 97 98 101 101 102 104 104 104 105 104 102 99 92 82 75 70 66 62 59 56 56 59 63 73 87 92 90 89 89 89 85 79 77 75 72 68 64 59 55 52 49 46 44 43 41 39 39 39 39 38 37 37 40 45 47 48 48 49 49 48 44 39 35 33 33 33 31 28 26 24 25 26 27 27 26 26 25 25
99 94 91 89 83 78 74 72 73 75 78 78 80 82 80 79 80 78 76 76 78 83 88 94 100 101 101 104 104 100 95 87 80 74 70 66 63 59 58 58 61 66 76 84 87 88 85 80 76 70 66 63 61 60 57 54 52 49 47 44 42 40 40 39 39 39 39 38 37 38 43 49 51 51 51 52 52 51 47 43 39 36 35 36 35 31 27 26 26 27 27 28 27 27 26 26 25
96 93 90 86 82 80 77 74 74 80 83 79 75 74 74 71 68 67 66 65 65 63 67 74 80 84 88 91 92 93 91 87 82 76 70 66 63 59 58 58 58 62 69 71 71 72 71 67 63 61 60 58 56 54 51 48 46 44 43 41 39 38 39 40 39 39 37 37 40 46 52 54 54 54 55 56 55 52 46 42 40 39 39 39 35 29 27 26 27 28 28 29 28 27 27 26 24
93 91 82 75 74 75 75 77 78 80 82 83 79 72 69 66 64 64 65 74 79 76 71 67 67 71 77 82 83 82 81 80 78 73 69 65 61 59 57 56 54 54 56 58 60 61 61 60 58 57 55 53 50 47 45 43 42 41 40 39 39 39 40 40 38 37 38 43 50 55 57 58 59 58 59 59 56 51 46 44 43 43 43 39 33 28 27 28 28 29 30 30 29 28 27 25 23
81 75 70 66 64 66 67 69 73 76 77 77 75 70 64 61 67 69 72 88 98 96 88 78 74 75 80 82 80 76 73 73 71 67 63 59 58 57 56 54 52 50 51 53 55 56 56 55 53 51 48 46 44 42 40 39 38 38 39 39 38 38 38 38 38 41 47 54 60 62 63 64 64 64 65 61 54 49 49 48 47 47 45 38 31 29 28 29 30 31 32 31 30 28 26 25 24
70 66 64 62 62 63 63 63 66 70 71 69 68 66 64 69 84 93 96 102 104 103 99 91 84 82 83 80 76 73 70 67 63 59 57 57 58 58 55 52 50 49 49 49 50 49 48 47 45 44 43 41 39 38 37 38 39 40 41 42 42 41 41 42 45 50 57 63 67 69 70 70 70 71 67 59 53 52 53 52 52 52 45 36 31 30 30 31 33 33 34 33 32 28 26 25 24
66 64 61 62 64 67 71 72 71 73 73 70 67 68 72 80 90 98 99 99 102 104 103 100 94 88 82 77 73 70 65 60 56 54 55 57 57 54 51 48 46 46 45 44 43 42 41 39 38 38 38 38 39 41 43 46 48 50 52 53 54 53 53 55 59 64 68 71 75 77 77 76 75 71 63 56 54 56 56 56 57 54 43 34 31 31 32 34 35 34 35 35 32 28 26 25 23
57 58 58 57 57 63 70 73 76 82 84 80 81 85 89 91 94 97 97 98 102 104 101 98 92 84 76 71 67 64 61 57 52 52 53 52 50 46 43 41 40 39 39 38 36 36 36 36 38 40 44 47 50 52 54 56 58 59 59 60 61 60 60 62 67 71 73 77 80 81 80 78 73 66 60 57 58 60 60 60 62 54 40 34 33 33 35 36 36 35 37 35 31 29 27 25 23
50 51 51 48 49 58 66 72 79 85 90 93 92 90 88 86 86 88 90 92 94 95 92 85 78 72 68 64 63 64 59 51 46 46 45 42 38 36 35 35 36 36 37 38 40 43 44 45 49 53 57 59 62 64 66 68 69 70 70 70 70 69 68 68 72 74 75 78 79 80 79 76 70 64 62 61 62 65 64 65 66 53 39 36 34 35 38 38 37 37 38 34 31 30 27 25 23
50 51 51 53 60 67 71 74 78 81 89 94 87 81 77 72 74 81 87 89 84 79 73 69 68 66 63 61 64 64 55 45 42 42 42 42 45 49 52 53 53 54 56 59 61 63 63 63 64 67 69 71 75 77 77 78 79 82 83 83 83 81 79 79 83 85 85 85 87 90 87 81 75 69 68 66 67 70 67 69 68 51 39 37 37 38 40 39 38 39 37 33 32 32 30 28 24
59 61 60 62 65 66 66 68 69 68 73 76 71 69 67 62 69 82 87 81 69 62 61 64 69 69 64 63 65 63 56 55 56 56 58 62 68 72 74 74 74 74 75 76 76 75 75 75 75 76 75 77 82 84 84 84 86 88 90 91 90 88 86 86 90 94 95 95 96 99 96 90 81 76 75 71 72 74 71 74 69 49 40 39 39 41 41 39 38 38 36 34 34 35 35 33 29
68 65 63 63 61 56 54 57 60 59 63 70 68 63 61 59 64 73 75 69 62 62 67 70 73 73 69 67 67 64 63 66 68 68 70 73 77 78 77 76 76 76 75 75 74 74 75 76 79 82 81 83 88 91 90 87 88 90 90 90 89 89 90 92 97 102 103 100 97 96 95 91 83 80 78 75 77 76 76 80 67 46 41 40 41 43 42 40 40 38 36 36 36 37 40 39 35
71 67 65 64 57 51 48 53 62 68 76 88 90 80 75 74 73 75 77 77 75 75 77 78 79 78 76 73 70 68 68 70 72 72 71 71 74 75 72 70 69 69 69 69 69 72 78 81 86 90 90 90 94 98 98 93 91 91 90 90 91 93 94 93 93 95 94 89 86 85 87 87 83 81 79 79 79 78 82 82 62 45 42 41 43 45 43 42 41 40 40 40 40 40 41 42 42
75 68 69 67 60 53 50 56 68 80 86 89 89 81 76 75 75 80 85 85 84 84 85 83 81 82 84 78 71 69 67 68 69 68 66 64 66 66 64 63 63 64 64 67 70 75 81 85 89 94 95 96 97 99 99 96 93 93 92 91 92 91 86 78 73 74 75 73 73 75 77 79 81 81 80 80 78 82 89 79 56 45 43 43 46 47 44 44 43 42 43 44 44 44 43 43 44
76 67 67 69 66 60 56 59 65 76 83 83 81 76 72 70 70 78 83 85 88 90 89 83 78 81 85 81 73 67 64 65 64 64 64 66 69 70 73 75 76 78 78 79 80 83 87 88 89 94 98 99 101 101 98 94 92 89 86 81 77 72 67 64 62 63 66 69 72 71 70 74 79 80 78 77 79 90 92 71 51 46 45 45 49 48 46 46 46 45 45 46 47 47 47 45 45
69 64 64 68 70 66 62 64 69 78 86 89 89 81 74 70 69 74 77 82 89 91 90 86 79 75 75 73 67 61 61 63 62 65 71 76 81 84 87 91 94 97 99 99 98 96 96 93 91 94 97 99 102 103 97 90 83 73 67 63 60 60 62 63 63 63 64 68 71 71 70 72 76 76 75 76 85 97 86 62 50 48 47 49 50 48 46 46 47 47 47 48 49 49 50 49 47
63 63 65 70 75 74 67 64 67 77 83 85 85 77 68 64 65 73 80 84 85 79 79 82 75 66 64 62 57 54 57 62 67 77 86 89 93 95 97 100 102 105 105 107 104 98 96 94 92 93 95 101 105 100 88 76 66 57 54 56 56 58 62 62 62 62 61 63 66 67 68 71 71 72 76 80 90 96 78 57 51 50 50 51 50 48 46 45 46 49 51 51 52 53 52 51 49
65 66 70 75 82 86 83 74 64 67 74 75 77 73 64 60 61 69 75 77 74 64 63 68 64 56 53 52 50 53 59 66 75 85 92 94 95 98 99 99 101 105 106 106 102 94 91 90 91 96 101 104 99 86 72 61 54 52 53 56 57 58 61 62 62 62 60 60 63 64 65 69 70 73 81 85 92 90 70 55 53 52 52 53 50 47 47 48 48 50 52 54 58 60 59 56 55
75 72 74 81 90 96 98 92 78 72 74 74 77 74 66 62 66 71 73 70 66 59 57 56 50 46 46 48 54 63 71 77 80 86 90 92 92 88 80 74 79 90 94 93 88 80 78 82 90 99 101 92 78 67 59 53 52 54 55 56 59 62 64 65 65 64 63 62 65 66 65 71 75 77 81 84 91 87 65 56 57 55 55 54 51 48 48 50 52 52 52 55 60 66 68 65 62
82 78 82 91 98 101 101 101 94 87 85 82 79 77 74 72 73 75 76 74 69 65 60 51 44 44 48 56 69 76 78 78 75 74 79 81 75 64 53 48 54 65 70 70 66 64 70 80 85 86 80 69 61 57 53 52 54 56 56 59 62 65 65 65 65 66 65 63 64 67 69 75 78 79 78 81 91 83 61 57 60 57 57 55 51 48 48 52 54 54 54 57 61 67 72 70 68
80 81 88 97 101 101 100 101 101 99 100 96 86 79 78 81 83 82 79 79 74 66 58 50 46 49 59 71 75 69 59 54 49 47 50 52 46 40 38 40 42 47 53 56 59 64 72 75 70 64 61 58 55 53 51 55 59 58 58 61 63 62 61 61 60 61 62 61 61 64 68 74 78 81 80 83 90 79 60 59 59 57 57 54 52 49 49 53 56 58 57 59 62 68 74 72 71
79 82 87 97 102 101 100 100 102 103 104 102 92 81 78 81 87 87 81 75 69 59 52 48 51 63 76 76 62 47 40 37 36 35 34 33 33 34 35 37 39 42 47 53 59 63 64 60 56 54 55 54 53 53 55 60 64 63 60 59 57 55 54 54 53 52 54 56 56 56 58 63 70 78 82 86 90 74 58 59 60 59 58 54 52 50 51 54 58 60 60 60 62 71 78 74 71
72 79 82 90 97 97 94 92 95 97 93 86 79 76 77 78 80 78 70 62 55 49 47 53 67 78 75 59 44 38 37 35 34 33 31 30 30 31 34 36 38 39 42 47 52 55 53 51 53 56 57 55 56 58 59 61 64 63 58 54 51 50 49 49 48 47 48 49 50 49 49 53 61 71 79 88 87 67 56 60 61 59 58 55 53 51 52 55 57 60 60 61 64 71 79 76 71
56 65 66 68 72 74 73 73 75 77 74 67 64 65 66 65 62 57 53 49 46 46 55 68 76 71 54 43 41 40 37 34 32 32 31 29 29 30 33 36 37 38 40 44 47 50 51 53 56 59 61 60 61 61 60 59 59 58 54 52 50 50 49 46 45 44 45 46 46 47 47 49 56 66 77 85 77 58 54 61 60 59 58 56 56 54 54 55 56 58 60 62 64 68 76 77 73
47 52 52 53 57 60 62 63 64 65 66 64 61 58 56 53 49 47 47 46 49 57 67 70 68 62 55 52 49 43 39 36 32 30 30 30 30 31 32 33 35 37 39 42 46 48 49 50 54 58 61 61 62 62 59 55 54 55 54 53 51 50 47 46 45 44 45 45 46 48 49 52 57 66 74 74 61 50 54 59 59 60 59 58 58 57 57 58 58 58 59 61 60 63 71 75 75
53 56 56 59 64 67 66 66 68 69 70 68 64 61 57 53 50 50 50 53 61 66 65 65 73 78 69 58 51 44 41 38 34 31 30 30 31 31 31 32 33 35 37 40 42 43 43 44 47 50 51 54 56 57 54 52 52 54 54 52 49 47 46 45 45 45 44 43 44 46 49 53 57 61 62 56 47 46 52 56 57 59 58 58 58 58 60 60 58 58 58 58 57 59 66 71 76
58 59 58 61 67 70 70 70 70 67 66 65 64 62 58 52 50 51 57 64 66 63 62 69 82 81 65 55 52 46 42 39 36 33 32 32 32 32 32 32 32 33 35 39 40 41 41 42 43 44 45 47 49 50 50 50 50 51 50 49 48 47 47 46 46 46 46 44 43 43 44 47 48 48 46 43 41 44 47 49 51 52 53 54 55 57 58 57 55 55 56 57 56 56 60 66 75
56 54 50 56 66 72 73 72 68 64 64 62 59 58 55 53 55 60 68 71 66 64 68 72 75 69 60 58 54 46 44 41 37 36 37 38 36 34 33 33 35 36 37 38 40 41 42 41 41 42 43 45 46 47 49 51 51 51 51 51 51 49 48 48 47 47 47 47 47 45 44 43 43 41 39 38 38 38 40 42 44 46 47 49 51 53 53 52 51 50 51 53 53 53 56 62 73
53 49 45 52 68 78 79 74 69 68 65 61 58 55 56 60 65 70 73 71 67 70 72 68 66 63 57 56 54 48 45 43 40 39 39 40 41 40 38 37 38 40 42 43 43 42 42 44 46 47 47 47 47 47 49 52 53 54 55 56 56 53 50 49 50 50 50 50 49 49 48 47 46 46 45 44 43 42 41 41 41 42 43 44 45 45 46 46 45 45 45 47 47 48 51 58 70
49 49 47 51 62 74 81 82 80 77 72 67 64 62 63 66 67 67 68 65 65 67 67 65 63 58 55 55 53 49 46 45 43 41 40 40 41 41 42 42 42 43 44 45 46 46 45 47 50 52 54 55 55 52 49 49 51 53 54 55 57 57 52 49 50 52 53 54 54 53 52 50 49 49 49 50 50 51 51 51 50 49 48 47 46 45 45 45 45 45 45 44 44 45 48 54 68
44 47 48 50 55 62 72 80 83 84 84 77 71 70 71 68 63 60 60 60 60 60 60 60 59 58 57 55 52 52 51 48 46 46 46 44 42 41 42 43 45 46 46 46 46 47 47 47 48 49 52 56 60 60 55 49 47 48 50 52 56 59 56 52 51 52 53 56 58 59 58 58 57 55 54 52 50 50 50 52 55 57 58 58 57 56 55 54 54 52 49 46 43 44 47 52 66
44 45 46 47 53 59 62 66 70 77 81 73 65 67 68 64 63 64 67 67 66 65 63 62 62 62 60 57 55 55 54 51 51 52 52 52 51 49 46 45 45 46 48 49 49 49 49 48 48 48 48 49 53 57 59 57 52 49 49 52 55 58 58 55 55 56 59 62 63 64 65 64 64 63 61 59 57 53 49 47 47 48 50 52 53 55 55 55 55 52 47 44 42 44 46 52 67
47 46 46 46 50 56 59 58 58 63 67 62 60 67 68 66 70 77 83 82 76 68 66 68 68 68 71 69 60 54 53 55 57 58 58 58 58 58 57 54 52 51 51 51 52 53 52 52 51 50 48 46 45 46 51 57 59 57 55 55 57 59 60 60 60 60 61 63 66 68 70 68 67 66 65 64 63 62 59 54 49 44 42 41 41 42 43 44 44 43 42 41 41 43 47 55 70
49 48 47 46 46 48 52 52 54 58 57 55 61 69 70 67 66 70 74 73 67 59 57 62 67 71 77 73 59 52 52 55 60 62 63 64 65 66 66 64 62 62 61 59 58 57 56 57 56 54 52 49 47 44 44 47 54 59 60 60 61 61 62 64 66 67 65 64 63 65 67 69 69 70 70 69 67 66 65 63 59 55 50 45 42 40 39 39 39 39 40 40 42 46 51 61 72
48 49 48 48 49 49 46 45 50 57 58 56 58 60 60 59 56 56 57 56 54 51 50 53 56 58 60 56 48 44 45 51 58 60 61 63 66 68 70 71 71 71 70 69 68 65 62 60 61 62 61 56 52 50 48 45 46 50 55 59 61 64 66 66 68 71 73 72 70 66 64 63 63 65 69 71 71 70 69 68 66 63 60 57 53 50 48 46 46 45 45 47 49 53 58 65 70
45 49 50 49 51 55 52 46 45 51 56 57 56 54 54 55 53 52 55 54 52 47 46 48 47 46 47 45 42 40 43 48 52 53 55 57 59 61 64 67 70 72 72 72 71 72 70 67 65 66 69 68 64 59 56 54 50 48 49 52 55 59 64 68 70 71 71 73 75 75 73 69 65 61 61 63 66 68 69 68 67 66 64 62 60 58 57 56 55 55 55 56 57 58 62 64 64
42 47 49 47 49 56 58 54 50 50 50 49 49 50 50 50 50 51 53 54 51 47 46 47 46 46 46 45 43 41 43 46 47 49 51 52 53 54 55 56 59 62 63 63 64 66 68 69 67 66 69 74 76 74 69 65 61 57 54 52 52 52 55 61 67 71 72 72 73 76 78 79 77 74 68 62 59 60 62 62 62 64 65 63 61 60 60 62 63 64 63 62 62 63 65 64 62
40 45 46 44 45 51 57 58 57 56 53 46 43 44 44 43 43 45 49 49 48 47 48 48 48 50 50 50 49 49 49 49 50 52 53 54 55 55 56 58 58 59 59 58 58 58 60 61 61 62 64 68 74 79 79 75 71 67 65 63 60 57 54 55 58 61 65 69 72 75 79 80 82 85 85 78 68 60 57 57 56 58 61 62 62 59 58 59 64 70 72 71 71 72 73 73 73
43 45 46 44 42 46 53 55 55 57 57 51 47 45 42 40 40 42 45 47 47 46 47 50 52 54 56 57 58 58 60 60 60 60 61 62 62 61 62 64 65 66 66 65 63 61 60 59 58 58 59 61 64 70 75 77 74 72 73 75 76 73 67 62 59 58 58 61 65 69 75 80 82 84 89 93 89 77 66 60 57 55 56 58 58 58 57 58 64 73 79 81 82 83 85 85 85
Wind_Speed
49 48 47 47 46 46 45 45 45 45 45 44 44 43 43 43 43 42 42 42 41 40 40 40 39 40 40 41 41 41 41 40 41 41 41 41 42 43 44 44 45 46 46 47 48 49 50 52 53 55 55 55 54 54 54 57 61 64 66 66 67 68 68 69 70 71 72 72 73 74 75 76 77 78 78 79 80 81 81 82 83 83 83 83 82 82 82 82 83 83 84 85 86 88 90 92 95
44 43 42 41 41 40 40 39 38 38 38 37 36 36 36 35 35 35 35 34 34 34 33 32 32 32 32 32 33 32 32 31 31 31 31 31 32 33 34 35 35 36 37 38 38 39 41 42 44 47 47 46 45 46 48 51 54 57 59 60 61 62 62 62 63 64 65 66 68 69 70 71 72 73 73 74 75 76 77 78 79 79 80 80 81 81 81 81 82 82 82 83 83 84 85 86 88
36 36 35 34 34 33 33 32 31 31 30 30 30 28 27 27 27 27 27 27 27 26 25 24 23 23 24 24 24 23 23 22 22 21 21 21 21 22 23 25 26 26 27 27 27 28 30 32 34 37 38 39 41 43 45 47 49 50 52 53 54 54 55 55 56 57 59 60 61 63 64 65 66 67 68 68 69 70 71 72 73 74 75 76 76 77 78 79 79 80 80 81 82 83 84 84 85
29 29 28 28 27 26 25 25 24 23 23 23 22 20 19 18 19 20 20 20 19 17 16 16 16 17 17 16 16 15 15 14 14 14 14 14 13 15 16 17 18 18 18 17 17 18 20 22 25 27 28 30 33 35 37 39 40 41 43 44 45 46 47 48 50 51 53 54 55 56 57 58 59 60 61 62 64 65 65 66 67 68 68 69 70 71 72 73 74 75 76 77 78 79 80 81 82
22 22 21 21 21 21 20 19 18 18 18 16 15 13 12 13 13 14 14 12 10 9 10 11 11 12 12 10 10 10 10 10 10 10 10 9 8 11 13 13 13 11 10 10 10 14 15 15 16 18 19 20 22 23 26 28 29 30 32 33 35 36 38 40 41 43 44 46 47 48 49 50 51 52 54 55 57 58 59 59 60 61 62 63 64 66 66 67 68 69 70 72 73 74 76 77 79
16 16 16 16 15 15 14 13 13 13 11 9 10 10 11 11 11 9 8 6 6 7 9 9 9 9 7 6 7 8 8 8 7 6 7 7 6 9 9 8 9 8 7 7 8 12 13 13 12 12 12 12 13 14 15 17 19 20 22 24 25 27 29 31 32 33 35 36 38 39 40 41 43 45 46 47 49 50 51 52 53 54 55 57 58 60 61 62 63 64 66 67 69 70 72 73 75
12 12 10 9 8 8 8 10 9 7 5 8 10 11 10 9 8 7 6 6 8 9 9 8 7 5 3 4 5 6 6 5 4 5 6 7 7 7 6 5 6 7 7 7 8 11 12 11 11 9 8 8 9 9 9 10 12 14 15 16 18 19 21 22 24 25 27 29 30 32 33 35 36 37 38 40 41 43 44 45 47 48 50 51 53 54 56 57 59 60 62 63 64 66 68 69 70
10 10 10 10 10 8 6 8 8 8 9 11 11 10 9 8 8 8 7 7 8 7 6 5 3 2 2 3 4 4 5 4 4 6 8 8 7 6 5 3 3 5 5 6 8 10 11 11 11 10 8 8 7 7 8 9 9 10 11 12 14 15 17 19 20 22 24 25 27 28 29 30 31 32 33 35 36 38 39 40 42 44 45 47 49 50 52 53 55 57 58 60 61 63 64 65 66
13 13 14 11 8 5 6 8 10 11 11 11 10 9 8 8 9 7 6 5 5 4 4 3 1 1 2 3 3 4 4 4 6 8 9 9 7 5 4 2 3 4 6 7 10 12 13 13 13 12 11 10 9 8 9 10 10 12 13 15 16 17 18 20 21 22 23 24 25 26 26 27 28 30 31 33 35 36 38 39 41 42 44 46 47 49 51 53 54 56 57 58 60 61 63 64 66
16 16 16 9 5 6 7 10 11 11 11 11 9 7 7 9 8 7 6 4 3 2 1 1 1 2 3 3 4 4 4 6 8 10 11 9 7 6 5 5 6 7 9 11 13 14 15 15 15 14 13 12 11 11 11 12 13 15 16 17 17 18 19 20 21 22 23 24 25 26 27 28 30 31 33 35 37 38 39 40 42 43 45 46 48 50 51 53 54 55 57 58 59 61 62 64 65
16 18 15 7 6 9 10 11 11 12 12 11 7 5 7 8 7 7 7 5 2 2 3 2 3 4 3 4 5 5 6 7 9 10 10 8 6 6 6 6 6 8 10 13 14 16 16 16 15 14 12 11 10 10 11 12 13 14 15 16 17 18 19 21 22 23 24 25 26 28 29 30 32 33 34 35 37 38 39 40 42 43 45 46 48 49 51 52 53 55 56 57 58 60 61 62 64
15 16 13 9 9 9 10 12 11 12 11 8 5 5 6 6 7 8 9 6 3 3 4 4 4 4 4 5 6 7 8 9 10 10 9 8 8 9 8 8 8 10 13 15 16 17 17 16 14 13 12 10 10 10 11 12 13 14 16 17 18 19 20 21 22 23 24 25 26 27 28 30 31 32 33 34 35 37 38 40 42 43 45 46 48 49 50 51 52 53 54 55 56 57 59 60 61
13 13 11 12 11 8 11 12 11 11 8 5 4 5 5 5 5 7 9 7 4 4 4 5 5 6 6 7 7 8 9 11 12 12 11 11 11 12 12 12 13 14 16 17 16 16 16 15 13 11 10 10 10 10 11 12 13 14 15 16 17 17 18 19 21 22 23 24 25 26 27 29 31 32 34 35 36 38 40 41 42 43 43 44 44 45 46 48 49 50 51 52 54 55 56 58 59
12 11 11 11 10 8 11 12 11 9 5 3 3 4 5 4 3 4 6 5 4 5 5 5 6 7 8 9 9 9 10 11 12 12 12 12 13 14 14 15 16 16 16 16 16 16 15 13 11 10 9 9 10 10 11 12 12 14 15 15 16 17 18 20 21 23 24 26 27 29 30 32 33 34 35 36 37 38 38 38 38 39 39 40 41 43 44 45 47 48 49 50 52 53 54 56 57
11 9 9 9 8 8 11 11 9 7 6 4 1 3 4 3 4 4 5 5 5 6 7 5 6 8 9 9 9 10 10 11 11 12 12 13 14 15 16 16 16 16 16 16 16 15 13 12 11 10 10 10 11 11 12 13 14 15 16 17 18 19 21 23 25 27 28 29 31 31 32 33 34 34 34 34 33 33 33 34 35 36 38 39 41 42 44 45 46 47 48 49 50 51 51 52 53
9 6 5 7 8 8 9 8 6 5 5 4 2 1 2 3 4 5 6 6 5 4 6 7 9 11 11 10 10 10 9 10 11 12 14 15 16 16 16 16 17 16 16 16 15 14 13 12 12 12 12 13 13 13 14 15 16 17 18 20 21 23 25 26 28 29 30 31 31 31 31 31 30 30 29 29 29 30 31 33 34 36 38 39 41 42 43 43 44 45 46 46 46 47 47 48 49
5 3 2 5 7 8 7 6 5 4 4 4 4 2 1 3 5 7 7 7 6 5 6 8 11 13 13 13 13 11 10 11 13 15 16 17 17 17 17 17 17 16 15 14 14 13 13 13 13 13 14 15 15 15 16 17 18 19 21 23 24 25 26 28 28 29 29 29 28 27 26 26 25 26 27 28 28 30 31 33 35 36 38 39 39 40 41 41 41 42 42 42 42 42 43 45 47
3 2 3 4 6 7 6 5 5 5 5 5 6 5 3 2 5 8 9 9 9 9 10 11 12 12 12 13 13 12 13 15 17 18 18 17 17 17 17 17 16 15 14 13 13 12 11 11 12 12 13 14 15 16 17 19 20 22 23 24 25 25 26 26 26 26 25 24 23 22 23 23 24 25 26 27 28 30 32 34 36 37 37 38 38 38 38 38 38 38 38 39 39 41 43 45 47
2 3 3 3 4 5 6 7 6 7 7 7 8 8 7 7 7 8 9 10 10 11 12 12 13 13 14 15 15 16 18 19 19 20 19 19 19 19 18 17 16 15 15 14 13 13 13 13 14 14 15 16 17 18 20 21 22 22 23 24 24 24 23 23 22 21 20 21 21 22 23 24 25 25 26 27 29 31 34 35 36 37 37 37 37 36 36 36 36 36 36 37 38 41 43 45 47
2 3 4 5 5 5 7 9 9 10 10 10 10 11 11 11 11 12 12 13 13 13 13 13 14 15 16 17 18 20 21 21 21 21 21 21 21 21 19 17 17 17 16 16 16 16 16 16 17 17 18 19 19 20 21 21 21 22 22 22 21 20 20 19 19 18 19 21 22 23 24 24 24 25 26 28 30 33 35 36 37 37 36 35 35 34 34 33 33 34 35 36 38 40 43 45 48
5 6 6 6 7 7 8 10 11 11 12 13 13 13 13 13 14 15 16 16 17 17 17 17 17 17 18 19 20 22 23 23 23 23 22 22 22 21 19 18 17 17 17 17 18 18 18 18 19 19 19 20 20 20 20 20 20 20 20 19 18 17 17 18 19 19 21 22 23 23 24 24 25 26 27 29 32 34 35 36 36 35 34 33 33 32 32 32 32 33 34 37 39 40 43 46 49
8 9 10 10 10 10 11 12 12 13 13 14 14 14 14 14 15 16 17 18 19 20 20 20 20 20 20 21 22 23 24 24 24 23 22 22 21 19 18 18 17 17 17 17 18 18 18 18 18 18 18 18 18 18 17 17 17 17 17 17 17 17 17 19 20 21 22 23 23 23 24 25 26 27 29 31 33 34 35 35 35 33 32 31 31 31 31 31 31 32 35 37 39 41 43 46 49
13 13 14 14 13 13 13 13 14 15 16 16 16 16 16 16 17 18 18 19 20 21 21 21 21 21 21 21 22 22 23 23 22 22 22 21 20 19 18 18 17 17 17 17 16 16 16 16 16 16 16 15 15 15 15 14 14 15 16 16 17 18 19 21 21 22 22 23 23 24 24 26 27 28 30 32 33 34 34 34 33 32 31 30 30 30 30 30 31 33 36 38 39 41 43 45 48
15 15 15 14 15 15 15 15 15 16 17 19 19 20 20 21 20 20 19 19 20 21 21 21 21 21 21 21 21 22 22 22 21 21 21 20 19 18 18 17 16 16 16 15 14 14 14 14 14 13 13 13 13 13 13 13 13 15 16 17 18 19 20 21 22 22 22 23 24 25 26 27 28 30 31 32 33 33 33 32 32 30 29 29 29 29 29 30 32 35 37 39 40 41 41 43 47
13 13 13 14 14 14 14 14 15 16 17 19 20 21 22 22 21 20 19 19 20 20 21 21 20 20 20 21 22 23 22 21 21 20 19 18 17 15 15 14 13 13 12 12 11 11 11 11 11 11 11 11 12 12 13 14 14 16 17 18 19 19 20 21 22 22 23 24 25 26 27 28 29 30 31 32 31 31 31 31 31 29 28 28 28 28 29 30 33 36 38 40 41 41 41 42 46
10 11 11 12 12 12 11 11 11 12 13 14 15 16 17 17 17 18 19 19 19 20 20 21 20 21 21 22 22 21 21 21 20 18 16 14 12 10 10 9 9 9 9 9 9 9 9 9 9 9 10 11 12 13 14 14 15 16 17 19 19 20 20 21 22 23 23 24 25 26 27 28 29 29 30 30 30 30 31 31 30 29 28 27 27 28 29 31 34 36 38 40 41 42 42 43 46
9 9 10 9 9 9 9 8 8 8 8 9 10 11 12 13 14 15 16 17 18 18 19 19 19 19 19 19 18 18 18 17 15 13 11 9 7 6 6 6 6 7 7 7 8 8 8 8 9 10 11 12 13 14 14 15 16 17 18 19 20 20 20 21 22 23 23 24 25 26 27 28 28 29 29 29 29 30 30 30 29 28 27 27 27 28 29 32 35 37 38 39 41 43 44 45 46
7 7 6 6 5 4 4 4 4 4 5 6 7 7 8 9 9 10 11 12 14 15 16 16 16 16 16 15 13 13 12 10 9 8 7 6 6 6 6 7 7 7 7 7 8 8 9 9 10 10 11 12 14 15 15 16 17 18 18 19 20 21 21 21 22 23 24 24 26 27 28 29 29 29 29 29 29 29 30 29 28 27 26 27 27 28 30 33 35 36 37 39 41 44 46 46 46
4 3 3 3 4 3 2 2 2 2 2 3 4 3 3 4 4 4 6 8 10 12 12 11 11 12 12 10 8 7 6 6 7 7 6 7 7 7 7 7 7 7 8 8 9 9 10 10 11 11 12 14 15 16 17 17 18 19 20 21 21 22 23 23 24 25 26 26 27 29 30 30 29 29 28 28 29 29 29 28 27 26 26 26 27 28 31 33 34 35 37 38 42 46 49 49 48
9 9 9 8 7 5 4 4 3 2 2 2 2 2 3 2 2 2 4 6 7 7 7 6 5 6 6 4 3 3 4 6 7 7 7 7 7 7 8 8 8 8 8 9 9 10 11 12 12 13 14 15 16 17 18 19 20 21 22 23 23 24 24 25 25 27 28 28 29 30 31 30 29 28 28 28 29 29 28 27 26 25 25 25 27 29 31 33 34 35 36 38 42 46 51 53 52
13 12 12 11 9 6 5 5 5 5 6 5 4 3 2 1 1 0 1 2 3 3 3 3 3 4 4 4 4 4 5 7 8 7 7 7 7 8 8 9 9 9 9 10 10 12 13 13 14 14 15 16 17 19 21 21 22 23 23 24 26 26 27 27 27 28 29 30 30 30 31 30 28 28 28 28 28 27 25 25 25 24 24 25 26 29 32 33 34 35 37 39 42 45 50 54 56
14 14 15 14 12 10 8 8 9 10 10 10 10 8 7 6 5 5 4 5 5 6 6 7 7 8 7 7 6 6 7 7 7 7 7 8 9 9 9 10 11 11 12 12 13 14 14 14 15 16 18 19 20 21 23 24 24 25 25 26 27 28 29 29 29 29 30 30 30 29 29 29 28 27 27 26 25 24 23 23 23 23 23 24 27 30 32 32 34 35 38 40 43 45 49 53 57
13 15 15 15 15 15 12 11 12 13 13 13 12 11 10 9 9 9 9 10 9 9 9 9 9 9 9 8 8 7 8 8 7 8 9 11 11 11 12 13 14 14 14 15 15 15 15 16 17 19 21 22 23 24 24 25 25 26 27 27 29 29 30 30 29 29 29 28 28 28 27 26 26 25 24 23 21 20 21 22 22 22 23 24 27 30 32 32 34 36 39 41 44 46 49 51 55
11 13 14 14 16 17 16 14 14 14 14 14 14 12 11 10 10 11 11 11 10 9 9 8 9 9 9 9 8 8 9 9 10 11 12 13 13 14 14 15 16 16 16 16 17 17 17 18 19 21 23 24 25 26 25 26 26 27 27 28 29 29 29 29 27 26 26 26 26 26 25 24 23 22 20 19 18 18 20 21 21 22 23 24 27 30 31 32 34 37 39 41 44 46 49 51 54
11 12 13 14 14 15 17 16 15 16 15 15 14 13 12 11 10 10 11 11 10 10 9 9 9 9 9 9 8 9 10 11 11 12 13 14 15 16 17 17 18 18 18 18 18 19 19 21 22 23 25 26 26 26 26 26 26 27 27 28 28 27 27 26 25 24 23 22 23 23 22 21 19 18 16 15 15 18 20 20 20 21 22 24 27 29 31 32 34 37 39 42 44 46 48 50 52
11 11 13 14 14 13 14 15 15 15 15 13 12 12 11 10 10 10 11 11 10 10 9 8 9 9 9 9 9 10 11 11 12 14 15 17 18 19 19 19 20 20 20 20 21 21 21 23 24 25 26 27 26 26 26 26 26 26 25 25 25 24 23 22 22 21 20 20 20 20 19 18 16 14 13 14 15 18 19 19 19 20 22 24 27 29 31 32 34 37 39 42 45 47 49 51 52
10 10 12 13 13 13 12 11 12 13 13 12 10 9 9 9 10 11 11 10 8 7 7 7 8 8 9 9 10 11 12 13 14 16 18 19 21 21 22 21 21 20 21 21 22 22 23 24 25 26 26 26 25 24 24 24 24 23 22 21 20 19 18 19 19 20 20 20 19 19 17 16 14 13 13 15 17 18 18 18 19 20 22 24 27 30 32 34 35 37 39 42 45 48 51 52 54
8 9 10 11 11 12 11 10 9 9 10 10 9 8 7 8 9 10 10 10 8 7 6 6 7 8 9 10 11 13 15 17 18 19 20 21 23 24 23 22 20 20 20 21 21 22 23 23 24 24 25 24 23 22 22 21 21 19 17 17 16 17 18 19 20 21 22 21 20 19 17 15 14 14 14 17 18 18 17 17 19 20 22 25 27 30 32 34 36 38 39 42 44 47 50 53 55
8 8 9 11 11 10 10 9 8 8 8 9 9 8 7 6 7 8 9 10 10 9 7 7 7 9 11 13 15 17 19 20 21 21 22 23 24 24 22 20 19 19 19 20 20 21 21 22 22 22 22 21 20 20 19 18 17 16 16 16 16 18 19 21 22 23 24 23 22 20 18 16 15 16 17 18 18 17 16 17 19 21 22 25 28 30 33 35 36 38 40 42 44 46 48 51 54
7 7 8 11 11 9 9 9 8 8 9 9 8 7 6 6 6 7 7 8 9 9 9 8 10 12 15 17 19 21 22 22 23 23 23 23 22 21 19 17 17 17 17 18 18 18 19 19 19 18 18 18 18 18 17 16 16 16 17 17 18 20 22 23 23 24 24 24 23 21 19 17 17 18 18 19 17 16 15 17 19 21 23 25 28 31 33 35 36 38 40 42 43 45 47 49 52
7 7 8 10 10 9 8 8 8 9 9 9 8 6 6 5 6 6 6 7 9 10 11 12 15 17 18 20 22 24 26 27 27 26 25 23 21 19 18 17 17 16 16 16 16 16 16 16 16 16 16 16 16 15 16 16 16 17 18 19 21 22 23 23 23 24 24 24 23 21 20 19 18 18 19 18 16 14 14 17 19 21 24 26 28 31 33 34 36 38 40 41 42 44 46 48 49
8 9 9 9 9 9 8 9 9 9 10 10 9 8 7 6 6 7 9 11 13 14 15 18 18 19 20 22 24 27 29 30 31 30 28 26 23 21 20 19 18 16 15 14 14 14 14 14 14 15 15 15 15 15 16 17 16 17 19 21 23 24 24 24 24 25 24 23 22 21 20 19 18 18 17 17 15 13 14 17 20 22 24 27 29 31 32 34 35 37 39 40 41 42 44 47 48
13 12 11 11 12 11 11 12 12 12 12 13 13 13 12 11 12 13 15 17 18 19 20 20 19 21 23 25 27 29 31 32 32 32 32 32 30 26 24 21 19 17 15 14 13 13 13 13 14 14 15 15 16 17 17 17 17 18 20 23 24 25 25 25 26 26 25 24 22 21 20 18 17 16 16 15 13 12 14 17 20 22 25 27 29 31 33 34 35 36 37 38 40 41 43 45 47
18 16 16 17 18 18 18 18 18 18 18 18 18 19 19 19 20 21 22 23 23 22 21 20 22 25 27 27 28 29 31 32 32 33 34 35 35 33 29 26 22 19 18 17 16 15 15 15 15 16 16 17 18 18 18 18 18 19 22 24 24 25 26 27 27 27 26 24 23 21 20 18 17 15 14 13 11 12 14 18 21 23 26 28 30 32 33 34 35 35 36 37 39 41 42 45 46
22 21 21 22 23 23 23 24 24 23 23 23 23 23 24 24 25 26 26 25 24 22 22 23 25 28 28 28 28 29 30 31 31 33 35 37 38 38 36 33 29 26 24 22 21 20 20 20 20 20 20 20 20 20 19 19 19 20 22 23 25 26 27 28 28 27 26 25 23 22 21 20 18 16 14 13 12 14 17 19 22 25 27 29 31 32 33 34 34 35 36 37 39 40 42 44 45
26 24 24 24 24 24 25 26 26 27 27 27 27 27 27 27 28 28 26 24 22 22 23 24 25 27 27 28 28 29 30 30 31 33 35 38 39 40 40 39 38 35 32 29 27 27 27 26 26 26 26 25 24 22 21 21 21 21 22 23 25 27 28 29 29 29 28 27 26 24 23 21 20 18 17 16 16 17 19 22 24 26 28 30 31 32 33 34 35 35 36 38 39 40 41 43 43
26 24 25 25 25 26 26 27 28 30 31 31 31 30 29 28 27 26 24 23 23 23 22 23 24 25 26 27 28 29 29 30 31 33 36 38 39 40 41 42 43 42 41 38 36 35 34 34 34 34 33 31 28 26 24 23 22 22 23 24 26 27 28 29 30 31 31 30 29 27 25 24 22 20 20 19 20 21 22 24 25 27 29 30 31 33 34 35 36 36 37 38 39 40 40 41 42
23 22 24 25 26 26 26 27 28 30 31 31 31 31 31 30 29 27 25 23 23 22 21 22 23 24 25 26 27 28 29 30 32 34 35 37 39 40 42 42 43 43 43 42 41 40 40 40 41 41 41 40 37 34 30 26 24 24 25 25 26 27 28 29 30 31 32 32 31 30 29 28 26 24 23 23 23 24 24 26 27 28 29 31 32 33 34 36 37 37 37 37 38 38 39 40 41
21 20 21 23 24 24 24 24 25 26 27 28 28 29 30 30 29 27 25 23 21 21 21 22 22 23 24 25 27 29 30 31 32 34 35 37 38 39 41 42 42 42 41 41 41 40 41 41 42 42 43 44 45 43 40 35 30 27 27 27 27 28 29 30 30 31 32 32 32 32 32 31 31 30 29 28 27 27 27 28 29 30 31 32 33 34 35 36 37 37 37 37 37 37 37 39 39
19 19 19 20 21 21 21 21 22 22 23 24 24 25 26 27 27 26 25 24 23 22 22 22 22 24 25 26 27 29 30 31 32 34 35 36 37 39 40 41 41 41 41 41 40 40 40 40 40 41 42 43 45 46 46 44 40 36 33 31 30 30 31 31 32 33 33 33 33 33 33 33 33 33 33 32 32 31 30 30 30 30 31 32 32 33 34 35 36 36 36 35 35 35 36 37 38
16 17 17 18 18 19 19 19 19 20 20 21 23 23 24 24 25 25 24 23 23 22 22 22 23 24 26 27 28 29 30 31 32 34 34 35 36 38 39 40 40 41 41 40 40 40 40 40 40 40 41 41 42 43 44 46 46 44 42 39 37 36 35 35 35 35 35 34 34 33 33 33 34 34 34 34 35 35 34 33 32 32 31 31 32 32 33 33 33 34 33 33 34 34 36 37 37
14 14 15 16 16 16 16 16 16 17 18 19 21 22 22 22 22 21 21 20 19 19 20 21 23 24 26 27 27 28 29 31 32 33 33 34 35 37 38 39 40 40 41 40 40 39 39 40 40 40 40 40 41 41 42 43 44 45 45 44 43 41 40 40 39 38 38 37 36 35 34 33 34 34 35 35 36 36 36 36 35 34 34 33 33 33 33 33 32 32 32 33 33 34 35 36 38
12 12 12 13 13 14 14 13 13 14 15 17 18 19 19 18 17 17 18 17 17 18 19 20 21 22 24 25 26 27 28 30 31 32 32 33 34 35 36 37 39 40 40 40 39 39 39 39 39 40 40 40 41 41 42 41 42 42 43 44 44 44 43 43 42 42 42 42 41 39 37 36 34 34 35 35 35 35 35 36 36 36 36 35 35 35 34 34 34 33 33 34 34 35 37 37 38
11 11 11 10 11 12 12 12 11 11 12 13 14 14 15 14 15 16 17 17 18 19 20 21 21 21 22 24 26 27 28 30 31 31 32 32 33 34 35 36 37 38 39 39 39 39 39 39 39 39 39 40 40 41 42 42 41 41 41 41 42 43 43 43 43 43 43 43 43 43 42 41 39 38 36 36 35 35 35 35 36 36 36 36 36 36 36 36 36 35 35 35 36 37 38 39 39
10 9 9 9 9 9 10 10 11 11 10 10 9 10 12 12 14 16 17 18 19 20 21 22 22 23 23 25 26 28 30 31 31 32 32 33 34 34 35 36 37 37 38 38 38 38 38 39 38 38 38 38 39 40 41 41 41 41 41 40 40 40 41 41 42 42 42 43 43 43 44 44 45 44 43 40 38 37 36 36 36 36 36 36 36 36 36 36 36 36 36 37 38 39 40 40 40
8 8 7 7 7 8 9 9 10 11 10 9 9 10 11 12 14 16 16 17 18 20 21 22 24 25 26 27 28 30 31 32 32 33 33 34 35 36 37 37 38 38 39 39 39 39 39 39 39 39 38 37 37 38 39 40 40 40 40 40 40 40 39 39 40 40 41 42 42 43 43 44 45 46 47 46 44 42 40 39 38 38 37 37 37 37 37 36 36 36 37 38 39 40 41 41 42
5 5 5 5 7 8 8 8 9 10 9 9 10 12 13 13 15 16 17 17 18 19 20 22 23 25 26 27 28 29 31 32 32 33 33 34 35 36 37 38 39 39 40 40 41 41 41 41 41 40 40 38 37 37 38 39 40 40 40 40 40 40 40 39 39 39 39 40 41 42 42 43 44 44 46 47 48 47 45 44 43 42 40 39 38 38 38 38 37 37 38 38 40 41 42 42 43
2 3 3 3 5 7 8 8 8 9 9 9 11 12 14 14 16 17 18 18 18 19 20 21 22 24 24 25 26 27 28 29 30 31 32 33 34 35 36 37 38 39 40 41 41 42 42 42 42 42 42 41 40 39 39 39 40 40 40 40 40 40 40 40 39 39 39 39 40 40 41 42 43 43 44 45 46 48 48 48 47 46 45 43 42 40 40 39 39 38 38 39 40 41 43 44 45
Wind_Direction
267 267 267 266 266 265 264 264 264 264 264 264 265 265 265 266 266 266 266 266 266 265 265 266 265 264 264 264 265 266 267 268 269 270 271 271 271 271 271 271 271 271 271 270 270 269 268 267 266 265 264 263 263 264 264 263 262 262 262 262 262 261 261 261 261 261 261 261 261 262 262 262 262 262 262 263 263 263 264 264 264 264 265 265 266 266 267 267 268 267 268 268 268 268 268 267 267
265 265 264 263 263 262 262 262 262 262 262 262 263 263 264 265 265 265 265 264 264 264 264 264 264 263 263 264 265 267 268 269 270 272 274 276 276 276 276 275 275 274 274 273 272 271 270 269 268 266 265 264 262 260 260 261 262 262 262 262 261 261 261 262 262 262 262 262 262 262 262 263 263 263 263 264 264 264 264 265 265 265 266 266 267 267 268 268 269 269 269 269 269 269 269 268 268
262 261 259 259 259 259 259 259 259 259 259 259 260 260 261 262 262 262 262 261 262 263 264 263 262 262 262 263 265 266 268 269 272 275 279 281 283 283 280 278 277 275 275 273 274 274 273 271 270 268 266 263 261 259 259 260 261 262 263 262 262 262 262 262 263 263 263 264 264 264 264 264 265 265 265 265 266 266 266 267 267 267 268 268 269 269 269 270 270 270 270 270 270 269 269 269 269
256 256 255 255 255 254 254 253 252 253 254 256 256 255 255 255 255 256 257 258 260 264 264 261 258 257 258 260 263 265 266 268 273 278 282 285 290 288 284 281 279 278 275 271 281 288 285 279 275 273 270 266 263 262 261 260 261 263 263 263 263 264 264 264 264 265 265 266 266 267 267 268 268 268 268 268 269 269 269 270 270 270 270 270 270 271 271 271 271 271 271 271 271 270 270 270 270
249 249 249 249 247 246 246 245 243 245 249 250 247 241 237 237 239 244 250 254 257 255 250 246 244 246 251 255 260 264 267 272 279 285 288 291 287 285 287 285 286 294 285 276 298 312 308 298 290 286 282 275 270 266 264 262 262 263 263 264 265 266 266 267 268 268 269 270 270 271 272 272 272 272 272 272 272 272 272 272 272 272 272 272 272 272 272 272 272 272 272 272 272 272 271 271 271
237 238 238 239 240 241 237 233 231 238 245 235 221 212 211 218 221 224 230 232 224 217 219 222 226 237 250 263 271 273 278 283 291 298 300 302 291 288 299 302 308 323 311 306 319 319 319 318 313 309 301 293 285 278 271 267 265 264 265 266 267 268 268 269 271 272 273 273 273 274 274 274 274 274 274 274 274 274 273 273 273 273 273 273 273 273 273 273 273 273 273 273 273 273 272 272 272
216 216 214 210 206 208 212 212 210 212 205 188 192 192 196 203 192 185 187 185 185 191 205 217 224 239 267 290 290 288 294 299 312 320 320 320 318 319 327 334 334 331 333 351 336 320 326 327 323 317 304 296 293 291 282 272 267 266 267 267 269 271 273 273 273 274 274 275 275 275 274 274 275 275 275 275 275 274 274 274 274 274 274 273 274 274 274 274 274 274 274 274 273 273 273 273 273
187 174 162 163 169 171 189 195 180 168 167 173 177 177 180 171 154 157 165 168 172 184 197 207 224 254 293 306 304 306 313 325 337 333 334 330 325 336 349 359 330 323 352 7 339 330 339 335 331 327 313 296 287 290 284 271 267 271 273 274 278 282 283 282 281 281 280 280 280 279 279 278 279 278 278 277 277 276 276 276 276 276 276 276 276 277 276 276 276 275 275 275 275 275 275 274 274
147 146 145 147 166 177 188 179 162 157 161 167 163 158 158 146 144 159 166 163 164 178 194 183 203 293 303 318 317 318 322 324 329 328 330 329 324 334 348 357 336 343 359 352 341 343 342 337 333 331 329 321 306 303 301 297 295 293 289 287 289 289 289 288 289 288 287 286 286 286 285 285 284 283 282 282 281 280 280 280 280 279 279 279 279 279 278 278 278 277 277 277 277 277 277 277 276
136 147 140 135 168 169 170 163 154 154 155 155 147 144 152 150 157 171 165 160 168 196 250 212 251 269 294 317 313 315 318 315 318 318 318 321 330 344 346 349 350 352 350 343 342 341 338 334 329 325 324 324 319 316 312 307 300 294 291 291 290 290 290 290 289 288 287 286 286 286 286 285 284 284 283 283 283 283 282 282 282 281 281 281 280 280 280 280 280 280 280 280 280 280 280 279 279
145 155 142 138 165 152 156 156 152 155 152 146 136 144 160 164 170 172 163 161 187 262 286 276 269 278 298 308 308 314 317 312 314 316 313 313 330 344 342 341 336 333 333 331 330 329 330 329 325 321 315 311 309 304 299 293 289 288 288 288 288 288 288 287 286 285 284 284 284 284 284 284 283 283 282 283 283 283 283 283 283 283 283 283 283 283 283 283 283 283 283 283 283 282 282 282 282
158 160 146 135 142 147 158 157 156 159 154 145 135 147 164 173 171 174 179 188 224 255 252 244 257 279 285 286 298 306 306 304 307 312 310 307 320 328 325 319 311 308 313 314 315 316 320 320 315 311 308 303 296 291 287 285 285 287 288 288 288 287 286 285 285 286 286 286 286 286 285 285 284 284 283 283 284 284 284 285 285 285 286 286 286 286 286 286 285 285 285 285 284 284 284 284 283
156 158 149 135 140 155 163 162 161 159 153 147 144 157 175 179 167 183 196 206 239 266 255 246 257 271 274 279 291 297 300 303 306 309 308 307 311 316 314 310 305 303 304 305 307 311 314 313 306 301 300 299 295 292 290 288 288 289 291 291 291 290 290 290 291 291 291 291 290 289 288 286 285 285 285 285 285 286 287 287 288 289 288 288 288 288 288 287 287 287 286 286 286 286 286 285 285
144 155 153 141 144 159 168 169 163 150 131 134 177 193 189 185 180 210 225 227 248 266 260 254 264 270 280 288 289 291 298 303 307 309 308 307 306 307 306 305 304 304 304 304 307 310 311 307 300 294 293 293 293 293 292 292 292 293 295 295 296 296 296 296 296 296 295 294 293 292 290 288 287 287 287 288 288 289 291 291 292 292 291 291 290 290 289 289 289 288 288 288 288 287 287 286 286
143 151 149 148 156 169 176 171 161 142 113 103 169 213 197 200 223 249 269 260 261 280 283 285 282 278 287 297 293 292 298 303 308 311 310 309 307 305 304 304 305 304 304 305 307 308 305 301 294 288 287 289 290 290 291 292 293 294 295 297 299 300 299 299 298 298 297 296 295 293 291 290 290 290 291 292 293 294 295 295 294 294 294 294 294 293 292 291 291 290 290 289 289 289 289 289 288
145 138 138 168 180 187 183 167 155 146 132 124 107 287 250 251 261 274 283 270 262 283 303 315 311 304 305 311 314 310 309 311 315 316 315 313 310 308 305 304 304 303 303 304 305 302 297 292 290 286 285 287 287 289 292 293 293 294 296 299 302 302 301 300 299 298 297 295 293 292 291 292 293 295 296 298 299 298 297 297 297 297 298 297 297 295 294 293 292 291 291 291 291 292 292 292 292
134 128 152 194 199 201 194 171 160 164 175 177 156 147 269 289 300 306 307 295 282 270 280 298 306 313 315 316 320 318 314 316 318 317 316 314 312 309 307 305 303 301 300 300 300 298 293 287 286 287 285 285 285 289 293 294 294 295 299 301 303 302 300 298 297 296 294 292 292 293 294 297 299 301 301 300 299 298 299 300 301 301 300 299 298 296 295 293 292 292 293 294 295 296 296 295 295
141 200 203 221 219 215 210 196 195 197 208 223 212 205 205 260 300 312 315 310 305 298 294 294 297 304 306 308 313 309 307 311 312 313 313 313 312 310 309 307 302 298 294 294 295 297 298 295 294 294 291 289 289 292 295 295 296 298 300 300 300 299 297 296 295 294 294 295 296 298 300 301 302 302 301 299 299 301 303 304 303 301 300 299 298 297 296 294 294 295 297 299 299 299 300 300 300
196 240 241 260 250 232 228 223 225 222 224 240 245 240 239 248 269 292 305 306 306 304 300 297 295 295 292 294 298 298 300 303 304 306 308 310 310 310 310 309 304 298 292 290 291 294 299 303 303 301 298 295 294 294 296 297 299 300 299 298 298 298 297 296 296 298 299 301 302 303 303 303 302 301 299 300 303 305 305 303 302 301 300 300 300 299 298 298 299 301 303 303 303 304 305 305 304
252 285 282 282 284 267 251 242 237 236 238 245 251 251 253 260 270 284 297 301 300 299 297 295 292 291 290 289 291 293 295 296 299 302 305 307 308 309 310 308 303 298 293 290 290 291 295 298 298 297 295 294 294 296 297 299 299 299 298 297 298 298 299 300 302 304 304 304 304 304 304 302 301 300 301 304 306 306 304 302 302 302 302 303 303 302 302 303 305 306 306 307 308 309 309 309 308
282 295 296 287 283 279 267 256 249 248 251 253 257 258 260 266 273 281 291 296 296 296 295 294 293 292 291 290 290 291 292 295 297 300 303 305 306 307 307 304 301 298 293 289 288 288 291 292 292 292 292 294 296 297 297 297 297 298 298 299 301 302 303 305 306 306 305 305 304 304 303 301 301 302 304 306 307 306 304 303 304 305 305 306 306 304 304 306 307 308 309 311 312 313 313 313 312
288 296 296 292 288 284 276 267 260 258 260 263 265 266 269 272 276 281 287 291 293 292 291 290 292 293 293 293 293 293 294 295 297 299 301 303 303 303 301 299 298 294 290 289 288 289 290 292 292 293 294 295 296 296 296 297 299 301 302 303 305 306 308 308 307 306 306 305 304 304 303 302 303 304 305 306 307 306 306 307 308 308 309 308 307 305 307 308 309 311 314 315 315 316 317 318 318
283 293 294 291 289 285 279 274 269 264 263 265 267 270 273 276 281 285 288 289 289 288 287 286 288 291 294 295 296 297 297 297 298 298 299 299 298 296 295 294 292 290 289 289 291 292 293 294 294 294 295 296 296 298 300 303 305 306 306 308 309 310 310 309 307 307 306 305 304 304 304 304 304 305 305 307 308 308 309 310 311 311 311 309 307 307 309 311 313 316 318 317 317 318 320 323 324
278 286 288 286 282 279 276 274 271 269 267 267 268 269 272 277 280 283 285 285 284 283 284 285 287 289 292 294 295 297 299 299 298 297 297 296 294 293 293 292 290 289 289 291 292 292 293 293 294 295 298 300 302 305 308 310 311 311 311 311 310 310 310 308 307 307 306 305 305 304 304 304 304 305 306 308 309 310 312 313 313 313 312 309 307 309 312 314 317 319 319 319 319 321 323 327 329
273 278 280 280 279 278 277 275 273 271 271 271 272 272 274 276 278 278 279 278 276 277 279 283 285 288 289 292 295 297 299 299 298 297 296 295 294 294 293 293 291 291 292 292 292 292 294 296 299 302 306 309 311 313 315 316 316 315 314 313 311 311 310 309 307 307 306 305 304 304 303 304 304 306 307 309 311 312 314 315 316 315 311 308 308 312 315 317 320 321 321 321 322 323 325 328 332
271 274 277 279 279 280 282 280 277 275 274 277 279 281 280 277 273 272 272 273 273 274 277 280 283 286 290 294 296 297 298 299 298 299 298 297 296 296 296 297 297 297 298 298 299 301 304 308 312 315 317 318 320 320 320 320 319 317 315 314 312 310 309 308 307 306 305 305 304 303 303 304 305 307 308 310 312 314 316 317 317 314 310 308 311 315 317 320 322 323 324 324 324 325 326 329 333
283 282 283 285 284 284 281 277 279 284 288 294 296 293 287 278 271 269 270 273 276 277 278 280 282 286 289 291 293 297 299 301 303 306 306 305 304 306 312 314 314 314 313 313 315 318 321 324 327 328 328 327 326 324 323 322 320 318 315 314 312 310 308 307 306 305 305 305 304 303 303 304 305 307 308 310 313 315 317 317 317 313 310 310 313 317 320 323 324 325 326 326 327 327 329 331 334
302 297 294 294 300 301 288 285 294 301 311 314 309 300 289 278 271 271 275 278 280 279 278 280 283 285 286 285 291 300 306 312 321 327 328 330 334 339 342 338 335 333 331 331 332 334 334 335 335 335 332 329 326 323 322 322 320 319 316 315 312 310 309 307 306 305 304 303 303 303 303 304 304 306 308 310 314 316 316 317 315 312 310 311 315 319 322 325 326 327 328 328 329 330 331 333 335
22 38 54 62 56 46 47 39 0 339 346 325 306 302 294 285 280 280 281 280 278 276 275 279 286 288 285 287 300 311 327 349 357 358 357 359 2 4 1 354 349 345 344 345 345 343 341 339 336 332 327 324 321 318 318 319 318 318 317 315 313 311 310 308 307 304 303 302 302 302 302 302 303 305 308 310 313 315 315 315 314 310 309 312 316 320 324 326 327 328 329 330 332 333 334 337 339
71 73 74 70 64 56 56 58 50 52 48 346 297 283 281 287 292 283 279 277 277 280 285 292 301 302 301 317 336 344 7 18 15 14 14 15 16 15 11 5 1 357 355 352 349 345 341 336 332 326 322 321 319 318 318 318 317 318 317 315 313 311 309 308 307 305 304 303 302 301 300 300 301 304 307 309 312 313 312 313 311 309 310 314 318 322 325 327 328 329 331 333 335 338 339 341 343
71 68 63 58 51 44 53 70 71 69 71 64 51 39 12 7 37 350 289 298 312 330 343 4 24 27 29 28 19 14 16 16 17 21 23 21 15 10 8 6 3 357 352 347 343 340 336 335 334 330 328 327 324 320 319 319 318 317 316 314 312 311 310 309 308 306 305 303 301 300 299 299 301 304 306 308 311 310 310 311 310 308 311 315 319 324 326 327 329 331 333 335 338 341 343 344 346
63 58 54 51 48 48 59 75 75 71 72 71 65 60 59 61 68 75 77 65 51 46 48 53 57 54 47 37 27 20 19 19 19 20 14 9 5 -0 357 354 350 345 340 337 336 335 335 336 337 335 333 330 326 321 318 317 317 316 314 313 312 311 311 310 309 308 306 305 303 301 300 301 303 305 306 308 309 308 309 310 309 308 312 316 321 325 327 329 331 334 337 338 340 343 345 347 349
57 52 50 50 50 51 60 72 74 72 72 72 70 66 65 67 71 76 77 71 66 66 67 67 66 61 53 45 39 34 30 25 21 16 10 5 1 354 348 344 341 338 335 333 332 332 331 331 332 332 331 329 327 323 318 316 315 314 313 312 311 311 311 311 310 310 309 308 307 305 304 305 305 306 308 309 308 307 309 309 308 309 313 318 323 326 328 330 334 337 339 341 343 345 346 349 350
57 54 53 52 52 53 57 66 74 75 74 73 72 69 67 69 72 77 80 79 78 78 76 73 72 70 64 56 48 37 30 28 25 19 11 4 356 349 344 340 337 335 333 330 329 327 325 324 325 326 326 326 325 322 318 316 315 314 313 313 312 313 313 314 314 314 314 314 312 310 309 310 309 309 309 309 307 308 309 308 308 310 314 320 324 327 329 332 336 338 340 342 345 347 348 349 351
56 56 57 55 55 55 57 61 67 71 72 70 69 69 69 68 72 77 80 82 82 77 72 72 74 73 66 54 41 35 34 32 21 11 3 356 349 343 338 334 331 329 327 325 323 322 320 320 321 322 323 323 322 320 318 316 316 317 317 316 316 318 318 319 319 320 321 321 318 316 315 314 312 311 312 311 310 311 309 307 308 311 316 321 325 327 329 333 336 338 340 343 345 347 349 350 351
49 51 58 58 56 53 53 55 59 64 65 62 63 67 68 64 68 77 79 79 77 70 65 69 71 65 56 45 36 35 34 25 12 3 357 350 344 337 331 327 324 322 321 319 317 316 316 317 319 320 321 322 321 320 319 319 320 321 322 322 323 326 327 327 330 332 335 335 330 325 323 320 318 318 317 315 314 311 308 307 308 311 316 320 324 327 330 333 336 339 341 343 346 347 349 350 351
39 43 52 55 53 49 45 45 52 60 60 57 55 57 60 62 65 71 74 75 74 70 65 63 62 56 48 42 38 35 28 19 9 1 354 347 339 332 326 322 319 317 316 314 312 311 313 316 319 320 322 322 322 321 322 324 325 326 330 333 338 344 347 348 350 351 351 351 344 337 333 328 324 326 322 319 317 312 308 307 309 312 316 321 324 328 332 334 336 339 341 344 346 348 349 350 352
34 36 45 48 48 42 37 38 43 50 51 48 48 47 50 58 59 60 65 69 72 76 74 62 55 50 47 46 43 36 26 17 6 358 350 342 333 327 323 319 315 313 310 309 310 313 317 320 322 323 323 323 324 326 327 329 330 335 343 352 360 4 4 2 358 355 354 353 348 341 338 333 327 325 322 320 319 313 308 308 310 312 316 321 324 328 332 334 336 338 341 344 347 348 349 350 352
31 32 36 39 42 35 27 29 33 35 34 35 43 50 51 49 47 51 60 69 75 79 74 62 56 60 62 55 44 33 23 13 4 355 348 339 331 327 325 322 318 315 313 315 318 322 325 326 326 327 327 328 330 332 333 335 339 346 355 2 5 4 1 357 353 349 347 345 342 335 331 327 321 318 318 319 319 313 307 309 309 311 316 320 323 327 331 333 335 337 341 344 346 348 349 351 352
30 31 30 32 34 31 21 21 27 28 26 25 30 40 51 52 48 51 57 68 81 85 79 73 72 72 65 52 40 32 25 19 13 5 357 347 340 337 337 336 333 330 330 330 332 334 334 332 331 332 334 335 335 337 341 346 349 354 358 360 360 357 353 350 348 344 341 338 335 328 321 315 311 310 312 316 318 312 307 308 308 311 315 319 322 326 330 333 334 337 340 343 345 347 349 351 352
38 34 29 29 26 23 17 16 22 22 17 12 12 21 36 49 54 56 58 71 89 91 85 83 79 70 58 47 40 37 33 30 26 20 13 5 359 357 357 356 353 351 349 347 346 344 341 339 341 344 345 342 343 348 354 356 354 355 358 358 356 354 351 348 346 344 340 336 332 327 320 312 308 307 309 314 315 311 308 310 312 314 317 319 323 326 329 332 334 336 339 342 345 346 348 351 352
50 40 35 35 28 24 20 19 21 17 11 13 22 31 40 53 65 72 77 84 90 91 88 84 76 66 57 52 47 43 39 36 34 31 27 24 20 16 14 11 8 6 4 2 359 356 354 356 359 359 356 354 359 3 4 2 358 357 359 358 355 354 352 351 349 347 344 341 337 334 328 321 314 311 311 314 314 311 312 315 317 318 320 322 324 327 330 333 334 336 338 341 344 346 348 349 351
61 51 46 48 48 46 43 42 41 37 35 39 47 55 63 72 79 83 85 87 89 90 87 82 75 68 63 57 50 44 41 38 37 35 35 35 34 30 26 23 21 20 21 20 19 16 14 16 16 12 9 10 13 13 11 9 6 2 1 359 358 357 358 356 354 353 352 351 348 345 340 333 325 320 318 317 316 316 319 321 322 323 324 325 327 329 331 333 335 336 338 341 344 346 348 349 350
65 58 57 60 63 65 65 66 66 65 64 64 66 71 75 79 82 83 85 87 89 89 86 81 75 68 62 55 48 44 41 39 37 37 38 41 42 41 38 35 34 35 37 37 34 31 29 30 28 24 22 22 21 20 18 16 13 9 5 4 5 6 6 4 2 1 359 359 358 357 354 348 342 336 330 326 322 322 324 325 326 327 328 328 329 331 333 334 334 336 339 341 343 345 347 348 349
67 64 65 68 71 73 74 73 74 75 75 76 76 78 79 81 82 84 86 89 90 89 85 80 72 64 58 53 47 43 41 39 38 38 41 43 46 46 46 45 44 44 44 43 41 38 37 36 35 33 32 31 29 26 23 21 19 15 12 12 13 13 13 12 11 10 8 7 7 7 6 3 359 352 345 337 331 328 328 328 328 329 329 330 330 331 332 332 333 335 338 340 342 344 345 347 348
73 71 71 72 74 74 74 74 74 76 78 79 80 81 82 85 87 88 90 90 89 86 82 74 65 60 57 53 46 42 41 39 39 40 42 44 46 47 48 49 49 48 47 46 44 42 42 41 40 38 37 35 33 30 27 24 22 19 17 16 16 17 18 19 19 19 17 16 15 13 12 10 6 1 354 346 338 333 330 329 329 328 328 329 329 329 329 330 331 333 336 337 339 342 343 346 347
77 74 72 73 75 75 75 74 74 75 77 80 82 83 84 86 87 89 88 86 85 81 74 65 61 60 56 50 44 42 41 39 39 41 43 45 46 46 47 48 49 50 50 50 50 49 48 47 46 44 41 38 34 30 27 23 20 19 18 18 19 20 22 24 24 25 25 24 22 19 16 13 9 3 356 348 341 336 332 329 327 326 326 326 326 326 326 327 329 331 334 335 337 339 341 343 345
76 72 70 72 76 78 77 75 74 75 77 79 80 81 82 82 83 84 83 82 79 73 65 60 58 56 51 46 43 42 41 40 40 41 43 44 45 45 46 47 47 49 50 51 52 51 51 50 49 48 46 43 40 36 30 25 20 18 18 19 21 22 24 26 27 27 27 27 26 24 21 18 14 8 2 354 346 340 334 330 327 325 325 324 324 324 325 326 328 330 333 334 336 338 339 341 343
74 71 69 71 75 79 79 77 75 76 77 77 77 77 78 79 79 79 79 77 73 67 62 59 55 51 47 45 43 42 41 40 40 40 41 41 42 44 44 45 45 46 47 47 48 48 48 48 48 47 46 45 43 40 36 32 26 22 21 21 23 24 25 26 27 27 27 26 25 23 22 21 19 15 11 5 358 350 343 337 333 330 328 326 325 325 326 326 328 331 333 335 336 338 339 340 341
69 69 68 70 73 76 78 79 79 79 79 77 75 76 76 77 76 75 74 72 69 65 61 57 53 49 46 45 44 43 41 39 39 39 39 39 39 40 41 42 42 43 44 44 43 43 43 44 44 44 44 43 43 42 40 37 35 32 29 27 27 26 25 25 25 25 24 23 22 21 20 19 18 17 15 12 8 4 359 353 348 343 339 336 333 332 331 332 333 334 336 338 339 340 340 340 340
64 65 65 66 71 74 75 78 81 83 82 80 78 79 80 79 77 74 72 70 67 63 59 55 52 49 47 44 43 42 41 39 39 39 38 37 36 37 38 38 38 39 40 41 40 40 39 39 39 39 40 40 41 42 41 40 39 38 37 35 34 31 29 28 26 24 22 21 20 19 18 17 16 14 13 12 11 10 8 5 1 357 353 350 347 344 343 342 341 341 341 342 342 341 341 340 339
63 65 64 63 67 73 74 74 77 82 86 86 85 84 83 82 80 77 72 67 63 60 57 55 53 50 46 42 40 39 39 39 38 37 37 36 35 35 35 35 36 36 36 37 37 37 37 36 35 35 35 35 36 38 40 40 40 39 39 39 38 37 35 33 31 28 25 23 21 19 17 15 14 13 12 10 9 9 9 8 7 4 2 359 357 355 353 351 349 347 346 345 344 343 342 341 340
62 63 64 62 62 66 69 68 71 78 84 88 89 86 82 77 74 73 70 64 58 55 52 52 53 51 47 41 36 36 38 38 37 36 35 35 34 33 33 32 33 33 33 33 33 34 34 34 33 32 31 31 31 33 35 37 38 38 38 37 37 36 35 34 33 31 30 28 26 22 19 15 12 9 7 6 6 5 6 6 6 6 5 3 1 359 358 356 353 351 349 347 346 345 345 344 342
64 60 59 57 58 60 60 60 64 73 80 84 84 79 72 65 60 61 60 55 50 47 46 46 48 48 43 35 32 35 39 39 38 37 35 35 34 33 32 31 30 30 30 30 29 30 30 32 32 31 29 28 28 29 30 31 33 34 35 35 34 33 32 31 31 30 29 28 28 26 24 22 18 13 8 4 2 1 1 2 2 2 2 2 1 0 359 358 356 354 351 349 347 347 346 346 344
72 67 60 55 56 57 55 52 57 67 72 75 70 59 55 53 52 52 51 47 45 43 41 41 41 40 36 32 33 39 43 42 41 40 39 38 37 36 35 33 32 30 29 28 28 27 27 27 29 29 29 26 25 25 27 28 28 29 30 30 30 30 30 29 28 27 26 26 26 25 25 24 23 21 18 13 7 3 360 358 357 358 358 358 358 357 357 357 356 354 352 350 349 348 348 347 346
76 78 73 65 64 63 57 50 51 56 59 59 56 50 48 48 47 47 45 44 42 41 40 40 40 40 38 38 40 43 44 44 43 42 41 40 39 38 37 37 35 34 32 31 30 28 27 26 26 27 27 26 23 22 22 24 25 25 25 25 26 26 26 26 25 24 23 23 22 22 22 22 21 21 20 18 15 11 6 2 358 355 354 353 354 353 353 353 353 353 352 350 349 349 349 348 347
63 80 78 68 70 73 67 57 51 50 46 45 49 50 50 51 51 50 49 47 44 43 44 44 46 45 43 42 41 40 39 39 39 38 37 36 35 35 35 35 35 34 33 32 31 30 29 28 27 26 26 25 24 22 20 20 20 21 21 21 21 21 21 21 21 20 20 19 19 19 19 19 18 18 18 17 17 15 13 10 5 1 356 352 350 350 350 350 350 351 350 350 350 349 349 348 348
28 62 62 46 56 72 76 70 63 57 48 42 45 48 51 54 55 55 55 53 49 48 49 48 48 46 42 38 36 33 32 31 31 31 31 30 30 29 30 30 30 30 30 29 29 29 29 28 27 27 26 25 24 23 20 18 18 18 18 18 17 16 16 17 16 16 16 16 15 16 16 15 15 15 15 14 14 14 14 13 11 8 5 359 354 350 348 348 348 349 349 348 348 348 348 347 347